{"data":{"norad_id":66276,"intl_designator":"2025-247M","name":"STARLINK-35742","alt_names":[],"object_type":"PAYLOAD","status":"ACTIVE","operator":null,"country":"US","launch_date":"2025-10-31","launch_site_code":"AFWTR","launch_vehicle":null,"mission":null,"orbit_class":"UNKNOWN","rcs_meters":null,"size_class":null,"mass_kg":null,"dimensions":null,"purposes":["comms"],"wikipedia_slug":null,"has_3d_model":false,"image_url":null,"decayed_at":null,"tle_current":{"epoch":"2026-05-25T04:09:15.079680Z","epoch_age_seconds":54125,"freshness":"FRESH","line1":"1 66276U 25247M   26145.17309120  .00011642  00000+0  40449-3 0  9995","line2":"2 66276  53.1590 196.1841 0001385  85.6868 274.4291 15.30205801 32795","mean_motion":15.30205801,"eccentricity":0.0001385,"inclination_deg":53.159,"raan_deg":196.1841,"arg_perigee_deg":85.6868,"mean_anomaly_deg":274.4291,"bstar":0.00040449,"rev_number":3279,"period_min":94.104988953705,"perigee_km":474.24856187098,"apogee_km":476.14693559638,"semimajor_km":6853.3347487337,"source":"CELESTRAK","updated_at":"2026-05-25T13:38:21.162021Z"}}}